Location: Unspecified
(42.0334°N, 93.6656°W)
Time: 12:56:27
(UTC-05:00)

Amateur Radio Satellites - All Passes

Search period start: 29 July 2015 12:26
Search period end: 30 July 2015 12:26
Location: Unspecified, 42.0334°N, 93.6656°W

Satellite Date Start Highest point End Downlink Frequencies (MHz)
Time Altitude Azimuth
DX 1 29 Jul 12:32:47 12:36:59 48° 288° (WNW) 12:41:09 434.975-435.025
ESTCUBE 1 29 Jul 12:33:39 12:38:10 70° 102° (ESE) 12:42:37 437.505/2401.250
BUGSAT 1 29 Jul 12:34:43 12:38:24 32° 263° (W) 12:42:01 437.445
VELOX 1 29 Jul 12:34:49 12:39:14 80° 286° (WNW) 12:43:38 145.980
HUMSAT D 29 Jul 12:40:48 12:44:28 27° 291° (WNW) 12:48:04 437.325/437.525
Oscar 19 29 Jul 12:45:48 12:49:37 22° 65° (ENE) 12:53:34 437.125/150
DUCHIFAT 1 29 Jul 12:50:01 12:52:36 15° 269° (W) 12:55:02 145.980
QB50P1 29 Jul 12:50:58 12:53:26 15° 270° (W) 12:55:43 145.935-145.965
NANOSAT C BR1 29 Jul 12:53:42 12:56:00 14° 270° (W) 12:58:07 145.865
PCSat 29 Jul 12:55:02 12:57:12 12° 326° (NW) 12:59:10 145.827
SPROUT 29 Jul 13:07:36 13:11:39 40° 98° (E) 13:15:42 437.525
YUBILEINY 29 Jul 13:10:07 13:18:48 64° 267° (W) 13:27:27 435.215
50 SAT 29 Jul 13:17:33 13:20:32 20° 292° (WNW) 13:23:25 437.505
Gurwin Techsat 1B 29 Jul 13:20:44 13:23:37 15° 61° (ENE) 13:26:43 435.225
TISAT 1 29 Jul 13:31:58 13:36:01 45° 99° (E) 13:40:04 437.305
AISAT 29 Jul 13:32:06 13:35:24 21° 294° (WNW) 13:38:36 437.250
AO-7 29 Jul 13:34:11 13:35:04 10° 41° (NE) 13:36:26 29.400- 29.500
AIST 1 29 Jul 13:39:11 13:43:21 42° 283° (WNW) 13:47:29
O/OREOS (USA 219) 29 Jul 13:41:39 13:45:11 22° 257° (WSW) 13:48:36 437.305
Cosmos 2491 29 Jul 13:42:11 13:50:59 79° 279° (W) 13:59:46 435.465 / 435.565
Cosmos 2504 29 Jul 13:51:22 13:58:48 36° 70° (ENE) 14:06:36 435.465 / 435.565
CUBEBUG 1 29 Jul 13:56:19 13:59:27 19° 294° (WNW) 14:02:29 437.445
ITAMSAT 1 29 Jul 13:59:12 14:03:38 29° 67° (ENE) 14:08:09 435.822/435.867
ESTCUBE 1 29 Jul 14:12:26 14:14:31 13° 297° (WNW) 14:16:24 437.505/2401.250
BEESAT 29 Jul 14:17:41 14:21:30 24° 93° (E) 14:25:24 436.000
Oscar 19 29 Jul 14:23:46 14:28:41 47° 261° (W) 14:33:38 437.125/150
JAS-2 29 Jul 14:28:42 14:33:30 26° 61° (ENE) 14:38:56 435.910
SWISSCUBE 29 Jul 14:37:18 14:41:49 41° 98° (E) 14:46:18 437.505
SPROUT 29 Jul 14:44:23 14:47:28 19° 293° (WNW) 14:50:26 437.525
ITUPSAT 1 29 Jul 14:56:36 15:01:20 58° 100° (E) 15:06:02 437.325
Gurwin Techsat 1B 29 Jul 14:57:42 15:03:01 77° 256° (WSW) 15:08:23 435.225
TISAT 1 29 Jul 15:08:44 15:11:28 17° 294° (WNW) 15:14:03 437.305
YUBILEINY 29 Jul 15:11:42 15:14:03 11° 286° (WNW) 15:15:38 435.215
AO-7 29 Jul 15:18:10 15:25:51 44° 62° (ENE) 15:33:39 29.400- 29.500
ITAMSAT 1 29 Jul 15:38:16 15:43:03 36° 263° (W) 15:47:50 435.822/435.867
STARS 29 Jul 15:40:15 15:43:05 17° 91° (E) 15:46:03 437.465
CUSAT 1 29 Jul 15:43:03 15:46:41 41° 78° (ENE) 15:51:26 437.405
Cosmos 2504 29 Jul 15:43:17 15:51:20 53° 269° (W) 15:59:33 435.465 / 435.565
Cosmos 2491 29 Jul 15:44:11 15:49:38 17° 303° (WNW) 15:54:36 435.465 / 435.565
BEESAT 29 Jul 15:55:04 15:59:28 37° 290° (WNW) 16:03:48 436.000
GONETS M04 29 Jul 15:57:23 16:00:06 12° 52° (NE) 16:03:28
KKS-1 29 Jul 15:58:27 16:02:43 44° 99° (E) 16:06:59 437.445
HORYU 2 29 Jul 16:02:34 16:06:55 60° 73° (ENE) 16:11:21 437.375
JAS-2 29 Jul 16:12:18 16:18:06 57° 262° (W) 16:24:43 435.910
SWISSCUBE 29 Jul 16:15:42 16:19:26 23° 294° (WNW) 16:23:03 437.505
MOZHAYETS 4 29 Jul 16:29:26 16:30:59 12° 87° (E) 16:32:49
ITUPSAT 1 29 Jul 16:35:42 16:38:49 17° 297° (WNW) 16:41:44 437.325
DANDE 29 Jul 16:43:58 16:47:25 66° 261° (W) 16:51:59 436.750
AO-7 29 Jul 17:10:42 17:18:40 45° 261° (W) 17:26:34 29.400- 29.500
STARS 29 Jul 17:15:34 17:19:48 45° 288° (WNW) 17:24:00 437.465
CUSAT 1 29 Jul 17:26:35 17:29:12 16° 265° (W) 17:32:03 437.405
Cubesat XI-IV 29 Jul 17:27:41 17:31:26 20° 63° (ENE) 17:35:20 437.490
KKS-1 29 Jul 17:35:53 17:39:03 19° 294° (WNW) 17:42:06 437.445
HORYU 2 29 Jul 17:41:53 17:44:03 13° 271° (W) 17:45:59 437.375
Cosmos 2499 29 Jul 17:43:59 17:48:07 15° 56° (NE) 17:52:55 435.465 / 435.565
GONETS M04 29 Jul 17:50:44 17:59:21 61° 77° (ENE) 18:07:59
MOZHAYETS 4 29 Jul 18:04:10 18:08:48 70° 285° (WNW) 18:13:24
PCSat 29 Jul 18:11:54 18:16:02 22° 44° (NE) 18:20:16 145.827
CUBESAT XI-V 29 Jul 18:14:54 18:16:52 13° 88° (E) 18:19:05 437.345
CUTE-I 29 Jul 18:22:44 18:27:58 59° 73° (ENE) 18:33:16 437.470
SO-50 29 Jul 18:33:33 18:37:58 31° 46° (NE) 18:42:21 436.795
Cubesat XI-IV 29 Jul 19:05:50 19:11:08 58° 259° (W) 19:16:27 437.490
STRAND 1 29 Jul 19:11:46 19:14:48 16° 89° (E) 19:18:01 437.568
VERMONT LUNAR 29 Jul 19:19:28 19:21:05 13° 150° (SSE) 19:22:44 437.305
BRITE-PL 29 Jul 19:27:22 19:31:06 27° 71° (ENE) 19:34:45 437.365/2234.400
Cosmos 2499 29 Jul 19:34:35 19:43:15 68° 79° (ENE) 19:52:07 435.465 / 435.565
GONETS M04 29 Jul 19:48:28 19:55:42 29° 276° (W) 20:02:42
CUBESAT XI-V 29 Jul 19:50:16 19:54:51 63° 285° (WNW) 19:59:22 437.345
GOMX 1 29 Jul 19:52:49 19:56:29 29° 70° (ENE) 20:00:07 467.674
PCSat 29 Jul 19:54:35 19:59:59 66° 244° (WSW) 20:05:20 145.827
DOVE 4 29 Jul 19:55:59 19:58:52 19° 67° (ENE) 20:01:51 437.250
HO-68 29 Jul 19:57:43 20:04:03 37° 64° (ENE) 20:10:31 435.675
CUTE 1.7 + AOD 2 29 Jul 19:59:57 20:02:46 18° 66° (ENE) 20:05:43 437.475
SEEDS 29 Jul 20:02:11 20:04:34 15° 65° (ENE) 20:07:08 437.485
CUTE-I 29 Jul 20:04:47 20:08:31 18° 270° (W) 20:12:03 437.470
CANX-2 29 Jul 20:07:16 20:10:37 23° 68° (ENE) 20:14:05 2200.000
SO-50 29 Jul 20:14:00 20:18:36 38° 244° (WSW) 20:23:02 436.795
CINEMA 3 29 Jul 20:26:11 20:28:55 18° 66° (ENE) 20:31:48 145.822/145.860
PRISM 29 Jul 20:33:06 20:37:15 90° 8° (N) 20:41:20 437.425
AAUSAT CUBESAT 2 29 Jul 20:34:51 20:38:06 23° 68° (ENE) 20:41:27 437.432
STRAND 1 29 Jul 20:49:27 20:54:30 61° 287° (WNW) 20:59:30 437.568
VERMONT LUNAR 29 Jul 20:54:19 20:57:22 43° 165° (SSE) 21:00:25 437.305
BRITE-PL 29 Jul 21:05:52 21:09:39 26° 265° (W) 21:13:14 437.365/2234.400
UWE-3 29 Jul 21:06:02 21:08:49 18° 66° (ENE) 21:11:46 435.000/436.395/437.385
FUNcube-1 29 Jul 21:11:52 21:14:18 16° 65° (ENE) 21:16:56 145.935
CUBEBUG 2 29 Jul 21:14:52 21:18:23 28° 69° (ENE) 21:22:02 437.445
COMPASS 1 29 Jul 21:25:17 21:29:31 85° 261° (W) 21:33:46 437.405
Oscar 11 29 Jul 21:27:52 21:31:53 39° 71° (ENE) 21:35:57 145.826/435.025
Cosmos 2499 29 Jul 21:28:46 21:35:51 28° 276° (W) 21:42:45 435.465 / 435.565
GOMX 1 29 Jul 21:31:12 21:34:40 23° 266° (W) 21:38:00 467.674
DOVE 4 29 Jul 21:32:35 21:36:27 35° 263° (W) 21:40:17 437.250
CUTE 1.7 + AOD 2 29 Jul 21:34:19 21:38:23 42° 262° (W) 21:42:29 437.475
SEEDS 29 Jul 21:35:52 21:39:59 50° 261° (W) 21:44:09 437.485
M-CUBED/EXP-1 PRIME 29 Jul 21:38:40 21:40:21 12° 92° (E) 21:42:18 437.505
CANX-2 29 Jul 21:42:35 21:46:25 31° 265° (W) 21:50:14 2200.000
HO-68 29 Jul 21:44:54 21:51:42 45° 262° (W) 21:58:29 435.675
RS-15 29 Jul 21:45:18 21:55:09 43° 110° (ESE) 22:05:29 29.354- 29.394
DX 1 29 Jul 21:54:24 21:56:52 15° 64° (ENE) 21:59:30 434.975-435.025
HUMSAT D 29 Jul 21:57:46 22:00:48 21° 67° (ENE) 22:03:59 437.325/437.525
VELOX 1 29 Jul 22:00:32 22:00:58 10° 61° (ENE) 22:01:40 145.980
PHONESAT 2.4 29 Jul 22:00:35 22:03:40 29° 158° (SSE) 22:06:46 2401.200-2431.200
Cosmos 2491 29 Jul 22:00:40 22:01:05 10° 50° (NE) 22:02:14 435.465 / 435.565
CINEMA 3 29 Jul 22:01:59 22:05:53 38° 263° (W) 22:09:49 145.822/145.860
AUBIESAT-1 29 Jul 22:09:15 22:12:50 22° 97° (E) 22:16:28 437.475
AAUSAT CUBESAT 2 29 Jul 22:09:47 22:13:33 31° 264° (W) 22:17:19 437.432
ISS 29 Jul 22:09:51 22:12:41 28° 137° (SE) 22:15:34 145.825
DELFI C3 29 Jul 22:14:34 22:18:38 88° 79° (E) 22:22:44 145.870
ZACube-1 29 Jul 22:23:04 22:27:14 85° 257° (WSW) 22:31:31 437.345
50 SAT 29 Jul 22:27:19 22:30:07 20° 68° (ENE) 22:33:01 437.505
VERMONT LUNAR 29 Jul 22:30:49 22:33:59 67° 181° (S) 22:37:08 437.305
UWE-3 29 Jul 22:41:09 22:45:05 40° 263° (W) 22:49:06 435.000/436.395/437.385
FUNcube-1 29 Jul 22:46:14 22:50:16 47° 261° (W) 22:54:23 145.935
CUBEBUG 2 29 Jul 22:51:38 22:55:06 24° 267° (W) 22:58:33 437.445
AISAT 29 Jul 22:53:02 22:57:04 37° 71° (ENE) 23:01:09 437.250
UKube-1 29 Jul 23:04:27 23:08:46 76° 75° (ENE) 23:13:06 .
Oscar 11 29 Jul 23:05:06 23:08:14 19° 268° (W) 23:11:18 145.826/435.025
M-CUBED/EXP-1 PRIME 29 Jul 23:10:54 23:15:44 80° 290° (WNW) 23:20:29 437.505
UNISAT 6 29 Jul 23:12:55 23:17:04 31° 96° (E) 23:21:15 437.425
CUBEBUG 1 29 Jul 23:15:47 23:19:43 35° 71° (ENE) 23:23:43 437.445
DX 1 29 Jul 23:28:29 23:32:44 53° 260° (W) 23:37:00 434.975-435.025
VELOX 1 29 Jul 23:32:29 23:36:55 86° 257° (WSW) 23:41:21 145.980
HUMSAT D 29 Jul 23:32:35 23:36:21 33° 264° (W) 23:40:09 437.325/437.525
ESTCUBE 1 29 Jul 23:33:23 23:37:54 67° 75° (ENE) 23:42:26 437.505/2401.250
PHONESAT 2.4 29 Jul 23:37:54 23:41:23 65° 175° (S) 23:44:52 2401.200-2431.200
POLYITAN 1 29 Jul 23:39:57 23:43:15 22° 93° (E) 23:46:39 437.675
AUBIESAT-1 29 Jul 23:43:11 23:47:43 44° 294° (WNW) 23:52:09 437.475
AIST 1 29 Jul 23:45:42 23:49:49 45° 78° (ENE) 23:53:54
ISS 29 Jul 23:45:59 23:49:03 37° 334° (NNW) 23:52:09 145.825
BEESAT 3 29 Jul 23:49:54 23:52:26 17° 112° (ESE) 23:55:06 437.485
Cosmos 2491 29 Jul 23:52:10 00:00:39 54° 75° (ENE) 00:09:09 435.465 / 435.565
RS-15 29 Jul 23:56:30 00:07:17 58° 313° (NW) 00:18:29 29.354- 29.394
TIGRISAT 29 Jul 23:57:02 00:01:44 86° 105° (ESE) 00:06:26 435.000
ANTELSAT 29 Jul 23:57:39 00:02:21 90° 105° (ESE) 00:07:04 437.575/2403.000
POPSAT HIP 1 29 Jul 23:57:43 00:01:35 33° 97° (E) 00:05:28 437.405
50 SAT 30 Jul 00:01:01 00:04:31 31° 264° (W) 00:08:00 437.505
SPROUT 30 Jul 00:02:12 00:06:00 33° 70° (ENE) 00:09:51 437.525
QB50P2 30 Jul 00:04:34 00:08:37 41° 98° (E) 00:12:40 145.880/145.840
VERMONT LUNAR 30 Jul 00:07:36 00:10:32 35° 198° (SSW) 00:13:27 437.305
YUBILEINY 30 Jul 00:16:02 00:23:17 32° 85° (E) 00:30:47 435.215
BUGSAT 1 30 Jul 00:16:04 00:19:43 32° 97° (E) 00:23:24 437.445
TISAT 1 30 Jul 00:24:28 00:28:17 35° 71° (ENE) 00:32:07 437.305
AISAT 30 Jul 00:30:26 00:33:48 20° 267° (W) 00:37:03 437.250
DUCHIFAT 1 30 Jul 00:32:04 00:36:19 80° 102° (ESE) 00:40:34 145.980
QB50P1 30 Jul 00:33:16 00:37:32 86° 103° (ESE) 00:41:48 145.935-145.965
NANOSAT C BR1 30 Jul 00:35:35 00:39:52 90° 115° (ESE) 00:44:07 145.865
BEESAT 2 30 Jul 00:42:24 00:46:18 46° 118° (ESE) 00:50:17 435.950
M-CUBED/EXP-1 PRIME 30 Jul 00:48:08 00:49:47 11° 305° (NW) 00:51:12 437.505
UNISAT 6 30 Jul 00:49:45 00:53:45 28° 291° (WNW) 00:57:43 437.425
CUBEBUG 1 30 Jul 00:52:50 00:56:12 21° 267° (W) 00:59:29 437.445
ESTCUBE 1 30 Jul 01:13:26 01:15:19 12° 272° (W) 01:16:56 437.505/2401.250
POLYITAN 1 30 Jul 01:15:23 01:19:13 32° 290° (WNW) 01:23:02 437.675
PHONESAT 2.4 30 Jul 01:15:48 01:19:15 56° 191° (S) 01:22:40 2401.200-2431.200
ISS 30 Jul 01:24:02 01:26:10 16° 353° (N) 01:28:17 145.825
BEESAT 30 Jul 01:24:30 01:28:37 30° 68° (ENE) 01:32:48 436.000
AIST 1 30 Jul 01:24:43 01:27:06 14° 273° (W) 01:29:17
BEESAT 3 30 Jul 01:26:05 01:30:03 47° 308° (NW) 01:34:02 437.485
POPSAT HIP 1 30 Jul 01:33:58 01:37:17 22° 292° (WNW) 01:40:31 437.405
TIGRISAT 30 Jul 01:36:15 01:37:52 11° 298° (WNW) 01:39:14 435.000
ANTELSAT 30 Jul 01:37:10 01:38:29 11° 299° (WNW) 01:39:34 437.575/2403.000
SPROUT 30 Jul 01:38:48 01:42:10 22° 267° (W) 01:45:26 437.525
QB50P2 30 Jul 01:41:15 01:44:14 18° 294° (WNW) 01:47:05 145.880/145.840
SWISSCUBE 30 Jul 01:44:04 01:48:41 50° 72° (ENE) 01:53:21 437.505
Cosmos 2491 30 Jul 01:49:38 01:57:12 33° 275° (W) 02:04:33 435.465 / 435.565
BUGSAT 1 30 Jul 01:51:56 01:55:01 21° 292° (WNW) 01:58:02 437.445
AIST 2 30 Jul 01:57:40 02:01:52 66° 120° (ESE) 02:06:07 435.215
TISAT 1 30 Jul 02:01:06 02:04:11 19° 268° (W) 02:07:09 437.305
ITUPSAT 1 30 Jul 02:03:36 02:08:23 70° 74° (ENE) 02:13:12 437.325
DUCHIFAT 1 30 Jul 02:10:57 02:11:33 10° 298° (WNW) 02:11:55 145.980
YUBILEINY 30 Jul 02:11:12 02:19:43 56° 284° (WNW) 02:28:18 435.215
RS-15 30 Jul 02:14:00 02:22:55 25° 344° (NNW) 02:31:58 29.354- 29.394
O/OREOS (USA 219) 30 Jul 02:14:22 02:18:31 40° 106° (ESE) 02:22:45 437.305
BEESAT 2 30 Jul 02:21:26 02:24:37 21° 317° (NW) 02:27:43 435.950
Cosmos 2504 30 Jul 02:24:33 02:29:34 22° 82° (E) 02:35:05 435.465 / 435.565
Oscar 19 30 Jul 02:34:33 02:39:40 59° 101° (E) 02:44:47 437.125/150
STARS 30 Jul 02:38:01 02:40:44 17° 65° (ENE) 02:43:36 437.465
PHONESAT 2.4 30 Jul 02:54:08 02:56:51 21° 207° (SSW) 02:59:30 2401.200-2431.200
KKS-1 30 Jul 02:56:56 03:01:05 42° 71° (ENE) 03:05:18 437.445
ISS 30 Jul 03:01:06 03:03:30 19° 13° (NNE) 03:05:55 145.825
BEESAT 30 Jul 03:02:10 03:06:25 30° 264° (W) 03:10:38 436.000
Gurwin Techsat 1B 30 Jul 03:13:39 03:18:40 41° 97° (E) 03:23:41 435.225
JAS-2 30 Jul 03:20:49 03:27:02 26° 89° (E) 03:33:27 435.910
SWISSCUBE 30 Jul 03:23:32 03:26:52 18° 269° (W) 03:30:03 437.505
AO-7 30 Jul 03:24:02 03:24:39 10° 82° (E) 03:26:06 29.400- 29.500
MOZHAYETS 4 30 Jul 03:32:01 03:34:05 13° 63° (ENE) 03:36:21
AIST 2 30 Jul 03:38:01 03:40:54 17° 319° (NW) 03:43:41 435.215
ITUPSAT 1 30 Jul 03:44:38 03:46:51 13° 272° (W) 03:48:49 437.325
ITAMSAT 1 30 Jul 03:50:05 03:55:17 79° 103° (ESE) 04:00:28 435.822/435.867
O/OREOS (USA 219) 30 Jul 03:54:39 03:58:09 21° 305° (NW) 04:01:36 437.305
HORYU 2 30 Jul 03:55:42 03:56:59 11° 88° (E) 03:58:32 437.375
STARS 30 Jul 04:12:37 04:16:50 48° 261° (W) 04:21:05 437.465
Cosmos 2504 30 Jul 04:14:00 04:21:02 66° 281° (WNW) 04:28:35 435.465 / 435.565
Oscar 19 30 Jul 04:15:00 04:18:37 19° 297° (WNW) 04:22:04 437.125/150
YUBILEINY 30 Jul 04:16:57 04:19:11 11° 310° (NW) 04:20:43 435.215
RS-15 30 Jul 04:31:20 04:40:28 26° 18° (NNE) 04:50:06 29.354- 29.394
KKS-1 30 Jul 04:34:51 04:37:58 18° 268° (W) 04:40:57 437.445
ISS 30 Jul 04:37:09 04:40:24 66° 32° (NNE) 04:43:39 145.825
CUSAT 1 30 Jul 04:52:43 04:55:32 35° 98° (E) 04:58:03 437.405
Gurwin Techsat 1B 30 Jul 04:54:02 04:58:28 27° 294° (WNW) 05:02:48 435.225
GONETS M04 30 Jul 05:02:25 05:05:01 12° 75° (ENE) 05:08:21
JAS-2 30 Jul 05:04:54 05:12:39 69° 288° (WNW) 05:20:22 435.910
MOZHAYETS 4 30 Jul 05:06:08 05:10:46 72° 259° (WSW) 05:15:26
AO-7 30 Jul 05:11:08 05:19:25 63° 103° (ESE) 05:27:38 29.400- 29.500
CUBESAT XI-V 30 Jul 05:18:52 05:21:22 15° 64° (ENE) 05:24:04 437.345
HORYU 2 30 Jul 05:29:41 05:34:11 70° 286° (WNW) 05:38:40 437.375
ITAMSAT 1 30 Jul 05:31:22 05:34:12 15° 299° (WNW) 05:36:49 435.822/435.867
DANDE 30 Jul 05:57:49 06:01:05 37° 281° (W) 06:03:48 436.750
Cosmos 2504 30 Jul 06:12:47 06:15:15 11° 306° (NW) 06:17:16 435.465 / 435.565
ISS 30 Jul 06:14:34 06:16:32 15° 228° (SW) 06:18:25 145.825
STRAND 1 30 Jul 06:27:42 06:31:50 26° 66° (ENE) 06:36:05 437.568
CUTE-I 30 Jul 06:40:09 06:44:11 22° 92° (E) 06:48:21 437.470
RS-15 30 Jul 06:44:30 06:56:04 61° 48° (NE) 07:08:07 29.354- 29.394
GONETS M04 30 Jul 06:51:49 07:00:25 69° 94° (E) 07:09:04
JAS-2 30 Jul 06:52:03 06:56:31 16° 305° (NW) 07:00:39 435.910
CUBESAT XI-V 30 Jul 06:53:42 06:58:21 63° 260° (W) 07:03:01 437.345
AO-7 30 Jul 07:04:37 07:11:47 32° 302° (WNW) 07:18:45 29.400- 29.500
Cubesat XI-IV 30 Jul 07:22:40 07:27:54 55° 100° (E) 07:33:07 437.490
PRISM 30 Jul 07:23:05 07:27:15 69° 75° (ENE) 07:31:25 437.425
STRAND 1 30 Jul 08:06:00 08:10:52 40° 262° (W) 08:15:42 437.568
BEESAT 3 30 Jul 08:07:18 08:09:39 15° 39° (NE) 08:12:07 437.485
Cosmos 2499 30 Jul 08:11:58 08:18:57 51° 90° (E) 08:26:32 435.465 / 435.565
CUTE-I 30 Jul 08:19:27 08:24:34 47° 290° (WNW) 08:29:37 437.470
M-CUBED/EXP-1 PRIME 30 Jul 08:26:40 08:28:59 15° 57° (ENE) 08:31:32 437.505
GONETS M04 30 Jul 08:50:58 08:58:10 27° 296° (WNW) 09:05:04
PCSat 30 Jul 08:56:03 08:58:50 15° 105° (ESE) 09:01:55 145.827
AUBIESAT-1 30 Jul 08:57:01 09:00:22 26° 62° (ENE) 09:04:00 437.475
RS-15 30 Jul 08:57:23 09:08:21 45° 250° (WSW) 09:19:26 29.354- 29.394
BEESAT 2 30 Jul 09:01:05 09:04:49 33° 49° (NE) 09:08:30 435.950
PRISM 30 Jul 09:02:49 09:03:13 10° 272° (W) 09:03:20 437.425
Cubesat XI-IV 30 Jul 09:03:41 09:07:38 21° 297° (WNW) 09:11:26 437.490
BRITE-PL 30 Jul 09:08:23 09:12:44 85° 103° (ESE) 09:17:21 437.365/2234.400
COMPASS 1 30 Jul 09:09:35 09:11:59 15° 90° (E) 09:14:33 437.405
HO-68 30 Jul 09:11:50 09:18:17 36° 96° (E) 09:24:49 435.675
CUTE 1.7 + AOD 2 30 Jul 09:19:07 09:22:56 31° 95° (E) 09:26:46 437.475
SEEDS 30 Jul 09:20:04 09:23:36 25° 94° (E) 09:27:10 437.485
CANX-2 30 Jul 09:26:57 09:31:03 42° 98° (E) 09:35:09 2200.000
DOVE 4 30 Jul 09:29:47 09:34:14 52° 100° (E) 09:38:57 437.250
GOMX 1 30 Jul 09:30:29 09:34:58 86° 106° (ESE) 09:39:43 467.674
BEESAT 3 30 Jul 09:44:03 09:48:06 70° 239° (WSW) 09:52:03 437.485
AAUSAT CUBESAT 2 30 Jul 09:51:50 09:55:46 37° 97° (E) 09:59:41 437.432
CINEMA 3 30 Jul 09:55:21 09:59:47 44° 98° (E) 10:04:25 145.822/145.860
DELFI C3 30 Jul 09:55:22 09:56:37 11° 88° (E) 09:58:05 145.870
M-CUBED/EXP-1 PRIME 30 Jul 09:59:23 10:03:16 56° 256° (WSW) 10:07:31 437.505
Cosmos 2499 30 Jul 10:06:00 10:12:31 31° 293° (WNW) 10:19:21 435.465 / 435.565
ZACube-1 30 Jul 10:11:50 10:14:59 19° 91° (E) 10:18:18 437.345
UNISAT 6 30 Jul 10:12:39 10:16:18 28° 69° (ENE) 10:20:06 437.425
AIST 2 30 Jul 10:19:04 10:23:10 48° 53° (NE) 10:27:11 435.215
YUBILEINY 30 Jul 10:25:47 10:30:36 16° 56° (ENE) 10:35:55 435.215
SO-50 30 Jul 10:27:57 10:32:38 66° 120° (ESE) 10:37:32 436.795
UWE-3 30 Jul 10:29:59 10:34:15 38° 97° (E) 10:38:36 435.000/436.395/437.385
AUBIESAT-1 30 Jul 10:31:29 10:35:00 29° 261° (W) 10:38:42 437.475
FUNcube-1 30 Jul 10:33:54 10:37:54 31° 95° (E) 10:41:59 145.935
POLYITAN 1 30 Jul 10:33:55 10:36:46 18° 66° (ENE) 10:39:44 437.675
PCSat 30 Jul 10:36:16 10:41:41 76° 300° (WNW) 10:47:09 145.827
BEESAT 2 30 Jul 10:39:25 10:42:43 24° 246° (WSW) 10:45:55 435.950
CUBEBUG 2 30 Jul 10:40:45 10:45:20 63° 101° (E) 10:50:00 437.445
COMPASS 1 30 Jul 10:43:53 10:47:58 46° 287° (WNW) 10:51:59 437.405
O/OREOS (USA 219) 30 Jul 10:46:40 10:47:52 11° 47° (NE) 10:49:17 437.305
Oscar 11 30 Jul 10:50:23 10:54:47 76° 103° (ESE) 10:59:07 145.826/435.025
POPSAT HIP 1 30 Jul 10:51:08 10:54:37 27° 69° (ENE) 10:58:13 437.405
UKube-1 30 Jul 10:53:33 10:55:08 12° 89° (E) 10:56:58 .
CUTE 1.7 + AOD 2 30 Jul 10:55:13 10:58:44 24° 292° (WNW) 11:02:08 437.475
SEEDS 30 Jul 10:55:40 10:59:22 28° 290° (WNW) 11:02:59 437.485
TIGRISAT 30 Jul 10:56:08 11:00:26 78° 76° (ENE) 11:04:52 435.000
ANTELSAT 30 Jul 10:56:57 11:01:17 83° 76° (ENE) 11:05:45 437.575/2403.000
QB50P2 30 Jul 10:57:56 11:01:42 33° 70° (ENE) 11:05:30 145.880/145.840
HO-68 30 Jul 10:59:23 11:06:11 46° 294° (WNW) 11:12:54 435.675
CANX-2 30 Jul 11:03:41 11:06:42 18° 293° (WNW) 11:09:35 2200.000
Cosmos 2491 30 Jul 11:06:17 11:06:41 10° 74° (ENE) 11:07:52 435.465 / 435.565
BUGSAT 1 30 Jul 11:06:51 11:10:06 24° 69° (ENE) 11:13:25 437.445
DOVE 4 30 Jul 11:08:42 11:11:42 17° 294° (WNW) 11:14:39 437.250
GOMX 1 30 Jul 11:11:52 11:12:37 10° 297° (WNW) 11:13:07 467.674
HUMSAT D 30 Jul 11:15:41 11:19:39 36° 96° (E) 11:23:40 437.325/437.525
DX 1 30 Jul 11:16:46 11:20:17 24° 95° (E) 11:23:52 434.975-435.025
VELOX 1 30 Jul 11:23:35 11:26:25 17° 91° (E) 11:29:25 145.980
DUCHIFAT 1 30 Jul 11:24:33 11:28:39 61° 74° (ENE) 11:32:48 145.980
QB50P1 30 Jul 11:26:07 11:30:17 67° 75° (ENE) 11:34:28 145.935-145.965
ESTCUBE 1 30 Jul 11:27:24 11:29:31 13° 89° (E) 11:31:52 437.505/2401.250
AAUSAT CUBESAT 2 30 Jul 11:28:04 11:31:07 19° 293° (WNW) 11:34:04 437.432
DELFI C3 30 Jul 11:28:07 11:32:08 57° 286° (WNW) 11:36:05 145.870
NANOSAT C BR1 30 Jul 11:28:13 11:32:23 69° 75° (ENE) 11:36:34 145.865
CINEMA 3 30 Jul 11:33:17 11:36:44 21° 293° (WNW) 11:40:11 145.822/145.860
50 SAT 30 Jul 11:35:48 11:39:11 27° 95° (E) 11:42:36 437.505
ZACube-1 30 Jul 11:47:15 11:51:34 43° 288° (WNW) 11:55:52 437.345
UNISAT 6 30 Jul 11:49:20 11:53:03 27° 266° (W) 11:56:48 437.425
AIST 2 30 Jul 11:58:38 12:01:23 17° 249° (WSW) 12:03:58 435.215
UWE-3 30 Jul 12:06:58 12:10:35 23° 292° (WNW) 12:14:08 435.000/436.395/437.385
POLYITAN 1 30 Jul 12:08:27 12:12:24 39° 262° (W) 12:16:22 437.675
SO-50 30 Jul 12:10:00 12:13:42 21° 321° (NW) 12:17:22 436.795
FUNcube-1 30 Jul 12:10:20 12:14:08 27° 291° (WNW) 12:17:54 145.935
AIST 1 30 Jul 12:15:49 12:19:28 27° 90° (E) 12:23:11
Oscar 19 30 Jul 12:16:31 12:18:15 12° 59° (ENE) 12:20:14 437.125/150
CUBEBUG 2 30 Jul 12:18:55 12:21:35 15° 295° (WNW) 12:24:07 437.445
